Weather in Kuruil

Russia / Orenburg Oblast     51°33′02″N   57°08′20″E
temp.,
°C
wind,
m/s
gust,
m/s
humid.,
%
clouds,
%
prec.,
mm/h
press.,
hPa
HPBL,
m
25 february, thu
thu2523:00−24nw239580 0.3 102320
02:00−25nw229746 0.0 102521
05:00−27wnw229851 0.0 102719
08:00−29wnw111000 0.0 103119
11:00−25w229411 0.0 1033144
14:00−22wsw218840 0.0 1033229
17:00−22wsw239340 0.0 1034284
20:00−29wsw1110019 0.0 103519
26 february, fri
fri2623:00−30s1210030 0.0 103519
02:00−30sse229990 0.0 103419
05:00−27sse229594 0.0 103252
08:00−24se2497100 0.0 1030139
11:00−21sse3596100 0.2 1029280
14:00−17sse5894100 0.3 1026433
17:00−15sse5894100 0.8 1025490
20:00−15sse41096100 0.7 1023464
27 february, sat
sat2723:00−15se31096100 1.2 1021411
02:00−14se31096100 0.4 1019367
05:00−13se31196100 0.9 1016407
08:00−10sse61395100 1.0 1011500
11:00−6s81495100 5.2 1008626
14:00−2ssw71297100 4.4 1005668
17:000ssw611100100 6.2 1004459
20:00+1wsw51099100 0.9 1004461
28 february, sun
sun2823:000wsw51099100 1.4 1004499
02:000sw61198100 0.9 1002639
05:00−1wsw61097100 1.6 1003624
08:00−2wsw4997100 0.9 1003449
11:00−1wsw6996100 1.6 1004591
14:00−1wsw61095100 0.3 1005800
17:00−1sw71195100 0.9 1005742
20:00−2sw51198100 0.9 1006582
1 march, mon
mon123:00−5wsw61095100 1.9 1008400
02:00−13sw3798100 0.1 1010143
05:00−16sw2398100 0.3 101271
08:00−18wsw2299100 0.1 101420
11:00−16wsw2395100 0.1 1016248
14:00−13w3392100 0.1 1017322
17:00−13w3595100 0.1 1017325
20:00−17w3498100 0.1 1018102